AirNav   Everest Fuels
 
 511 users online  

19TA Lagrone Ranch Airport
Mc Clendon-Chisholm, Texas, USA

GOING TO MC CLENDON-CHISHOLM?


FAA INFORMATION EFFECTIVE 21 MAY 2020

Location

FAA Identifier: 19TA
Lat/Long: 32-49-20.4540N 096-25-00.9450W
32-49.340900N 096-25.015750W
32.8223483,-96.4169292
(estimated)
Elevation: 567 ft. / 173 m (estimated)
Variation: 06E (1985)
Time zone: UTC -5 (UTC -6 during Standard Time)
Zip code: 75032

Airport Operations

Airport use: Private use. Permission required prior to landing
Activation date: 03/1982
Control tower: no
ARTCC: FORT WORTH CENTER
FSS: FORT WORTH FLIGHT SERVICE STATION
Attendance: UNATNDD
Wind indicator: no
Segmented circle: no

Airport Communications

WX AWOS-3 at F46 (7 nm N): 121.25 (972-772-6699)
WX AWOS-3 at HQZ (7 nm SW): 118.175 (972-222-7631)
WX ASOS at TRL (10 nm SE): 119.275 (972-551-1334)
WX AWOS-3 at 49T (20 nm W): 135.425 (214-670-1243)

Nearby radio navigation aids

VOR radial/distance  VOR name  Freq  Var
CVEr093/24.9COWBOY VOR/DME116.2006E
TTTr089/31.6MAVERICK VOR/DME113.1006E
FUZr090/38.6RANGER VORTAC115.7006E
CQYr339/39.5CEDAR CREEK VORTAC114.8006E

 
NDB name  Hdg/Dist  Freq  Var  ID
MESQUITE079/5.724803EPQF .--. --.- ..-.
TRAVIS288/9.226006EAVZ .- ...- --..

Airport Services

Runway Information

Runway 15/33

Dimensions: 3100 x 50 ft. / 945 x 15 m
Surface: turf
RUNWAY 15  RUNWAY 33
Traffic pattern: leftleft

Airport Ownership and Management from official FAA records

Ownership: Privately-owned
Owner: RON LAGRONE
549 STEVENS ROAD
FORNEY, TX 75126
Phone 214-771-0881
Manager: RON LAGRONE
2631 STEVENS RD
ROCKWALL, TX 75087
Phone 214-771-0881

Airport Operational Statistics

Aircraft based on the field: 1
Single engine airplanes: 1
    

Additional Remarks

CTN: WATCH FOR LIVESTOCK ON RWY.
NO LANDING WITHOUT PRIOR APPROVAL.
FOR CD CTC REGIONAL APCH AT 972-615-2799.

Instrument Procedures

There are no published instrument procedures at 19TA.

Some nearby airports with instrument procedures:

F46 - Ralph M Hall/Rockwall Municipal Airport (7 nm N)
KHQZ - Mesquite Metro Airport (7 nm SW)
KTRL - Terrell Municipal Airport (10 nm SE)
7F3 - Caddo Mills Municipal Airport (16 nm NE)
KLNC - Lancaster Regional Airport (21 nm SW)
 
Loc | Ops | Rwys | IFR | FBO | Links
Com | Nav | Svcs | Stats | Notes

City of Fort Worth
 
Area around 19TA (Lagrone Ranch Airport)
 
Road maps at: MapQuest Bing Google
 
Aerial photo
No photo
 
Sectional chart

 
Airport distance calculator
Flying to Lagrone Ranch Airport? Find the distance to fly.

From to 19TA

Sunrise and sunset
Times for 07-Jun-2020
 Local
(UTC-5)
 Zulu
(UTC)
Morning civil twilight05:5010:50
Sunrise06:1811:18
Sunset20:3101:31
Evening civil twilight21:0002:00

Current date and time
Zulu (UTC)  07-Jun-2020 05:50:37
Local (UTC-5)  07-Jun-2020 00:50:37
 
METAR
KF46 
7nm N 
070535Z AUTO 10003KT 10SM CLR 26/23 A2987 RMK AO2 T02550230
KHQZ 
7nm SW 
070535Z AUTO 08005KT 10SM CLR 27/23 A2987 RMK AO1 T02650231
KTRL 
10nm SE 
070453Z AUTO 06003KT 10SM CLR 27/23 A2986 RMK AO2 SLP105 T02670228
TAF
KDAL 
22nm W 
070310Z 0703/0724 11007KT P6SM FEW070 FEW250 FM071700 08008KT P6SM FEW060 SCT300
NOTAMs
Click for the latest NOTAMs
NOTAMs are issued by the DoD/FAA and will open in a separate window not controlled by AirNav.

 

 
 

Would you like to see your business listed on this page?

 If your business provides an interesting product or service to pilots, flight crews, aircraft, or users of the Lagrone Ranch Airport, you should consider listing it here.  To start the listing process, click on the button below
 
Add a business
 

Other Pages about Lagrone Ranch Airport

Update a link
 
Copyright © AirNav, LLC. All rights reserved. Privacy Policy  Contact